COSMOS 2251 DEB, 34874

Orbit data source: Space-Track

COSMOS 2251 DEB, 34874 is space debris in LEO originally from a launch on Wed, 16 Jun 1993 UTC launched from the Plesetsk Missile And Space Complex (PKMTR). The debris from Iridium 33, an American commercial communications satellite, has been tracked extensively since its accidental collision with the defunct Russian satellite Cosmos 2251 in 2009. This event, occurring at high speed in low Earth orbit (LEO), generated thousands of pieces of space debris, significantly increasing the risk of further collisions. The Iridium 33 debris cloud has impacted space traffic management and orbital debris mitigation strategies, making it a subject of ongoing study in space situational awareness.

Loading next visibility...
Identifier
34874, 1993-036ACM
Orbit
LEO
Country
Flag of CISCIS
Related business
Manufacturer
Unknown
Mission
Spacecraft
Bus & Motor
Unknown
Mass
Unknown
Launch date (UTC)
1993-06-16 (33 years ago)
Launch vehicle
Unknown
Launch site
Plesetsk Missile And Space Complex (PKMTR)
Object type
Payload
Rocket body
Debris
Shape & HBR
Unknown shape, 0.1 m
Radar Cross Section
Small (<0.1 m²)

Expand to show TLE details & history
Last TLE update: 22 hours ago

TLE from 22 hours ago
0 COSMOS 2251 DEB
1 34874U 93036ACM 26037.51718957  .00004396  00000-0  14766-2 0  9996
2 34874  74.0415 331.2986 0052036 341.3962 136.3343 14.36703407878455
Epoch: 2026-02-06T12:24Z
TLE epoch observation values (Epoch: 2026-02-06T12:24:45.178Z)
Latitude
58.08112°
Longitude
161.28557°
Altitude
805.85 km
Speed
7.442 km/s
True Right ascension
08h 16m 30s
True Declination
57° 55' 39"
Sunlit
Object was in full shadow at epoch
Visualization orbit readout
Latitude
Unknown
Longitude
Unknown
Altitude
Unknown
Speed
Unknown
Apparent Right ascension
Unknown
Apparent Declination
Unknown
Sunlit
N/A
Visualization observer readout
Local Sidereal Time
12:21:08
Azimuth
Unknown
Elevation
Unknown
Doppler factor
Unknown
Orbital elements
Apogee altitude
804.214 km
Perigee altitude
729.853 km
Semi-major axis
7,145.171 km
Eccentricity
0.0052
Inclination
74.0415°
RAAN
331.2986°
Arg. of periapsis
341.3962°
True anomaly
136.74408°
Mean anomaly
136.3343°
Eccentric anomaly
136.53938°
Mean motion
3.59355 °/min
Orbital period
100.18 mins
BSTAR
0.0014766
Loading maneuver chart data...
Computing Atmospheric mass density...

Documentation

Showing up to 5 results
|